Location: Unspecified
(0.0000°N, 0.0000°E)
Time: 16:17:49
(UTC+00:00)

Falcon 9 debris - Pass Details

Date: 28 November 2019
Orbit: 431 x 436 km, 53.0° (Epoch: 13 December)

Event Time Altitude Azimuth Distance (km) Brightness Sun altitude
Rises 19:31:00 0° 223° (SW) 2,407 ? -23.9°
Reaches altitude 10° 19:33:09 10° 229° (SW) 1,537 ? -24.4°
Enters shadow 19:35:42 38° 263° (W) 678 ? -24.9°
